This demonstration page uses our WeatherBlox Daily Observations layout. Learn more.

39.92423, -83.80882

Hourly Observations for June 5, 2019

Temp ( °F °C ) Dew Point ( °F °C ) Humidity (%) Winds ( mph kmh ) Pressure ( in mb ) Visibility ( mi km ) Precip ( " mm )
12:56 am 00:56 Cloudy 70 21.1 56 13.3 61 61 SSW 8 13 29.91 1013 10 16.0934 0 0
1:56 am 01:56 Mostly Clear 69 20.6 57 13.9 66 66 SSW 10 17 29.89 1012 10 16.0934 0 0
2:56 am 02:56 Mostly Cloudy 68 20 58 14.4 70 70 SW 8 13 29.88 1012 10 16.0934 0 0
3:56 am 03:56 Clear 67 19.4 59 15 76 76 SSW 7 11 29.86 1011 10 16.0934 0 0
4:56 am 04:56 Cloudy with Light Thunderstorms 66 18.9 61 16.1 84 84 SW 12 19 29.85 1011 10 16.0934 0.07 1.778
5:09 am 05:09 Cloudy with Nearby Thunderstorms 64 18 63 17 94 94 SW 12 19 29.86 1011 10 16.0934 0 0.0254
5:13 am 05:13 Cloudy with Nearby Thunderstorms 64 18 63 17 94 94 SW 12 19 29.86 1011 10 16.0934 0.01 0.254
5:30 am 05:30 Mostly Cloudy with Light Rain 64 18 63 17 94 94 SSW 9 15 29.84 1010 10 16.0934 0.01 0.254
5:56 am 05:56 Cloudy with Light Rain 64 17.8 63 17.2 96 96 SW 7 11 29.84 1010 8 12.87472 0.04 1.016
6:16 am 06:16 Cloudy 64 18 64 18 100 100 SSW 8 13 29.83 1010 10 16.0934 0 0.0254
6:27 am 06:27 Cloudy with Nearby Thunderstorms 64 18 64 18 100 100 SW 10 17 29.84 1010 7 11.26538 0.02 0.508
6:42 am 06:42 Mostly Cloudy with Light Rain 64 18 64 18 100 100 SW 9 15 29.84 1010 10 16.0934 0.05 1.27
6:56 am 06:56 Partly Cloudy 65 18.3 64 17.8 97 97 SSW 7 11 29.84 1011 10 16.0934 0.05 1.27
7:56 am 07:56 Cloudy with Light Rain 66 18.9 64 17.8 93 93 SSW 8 13 29.84 1011 10 16.0934 0 0.0254
8:56 am 08:56 Mostly Cloudy 67 19.4 65 18.3 93 93 SSW 5 7 29.84 1011 10 16.0934 0 0.0254
9:56 am 09:56 Cloudy 68 20 66 18.9 93 93 SW 10 17 29.83 1010 10 16.0934 0 0
10:56 am 10:56 Cloudy 69 20.6 66 18.9 90 90 SSW 8 13 29.81 1010 10 16.0934 0 0.0254
11:22 am 11:22 Cloudy 72 22 68 20 88 88 SSW 10 17 29.78 1009 10 16.0934 0 0
11:56 am 11:56 Cloudy 74 23.3 69 20.6 85 85 SW 14 22 29.8 1009 10 16.0934 0 0
12:56 pm 12:56 Cloudy 75 23.9 69 20.6 82 82 SW 13 20 29.8 1009 10 16.0934 0 0
1:56 pm 13:56 Mostly Cloudy 78 25.6 70 21.1 76 76 SSW 14 22 29.78 1008 10 16.0934 0 0
2:56 pm 14:56 Cloudy 76 24.4 69 20.6 79 79 SW 15 24 29.78 1008 10 16.0934 0 0
3:56 pm 15:56 Mostly Cloudy 79 26.1 71 21.7 77 77 SW 21 33 29.76 1008 10 16.0934 0 0
4:08 pm 16:08 Mostly Cloudy 79 26 72 22 79 79 WSW 15 24 29.72 1006 10 16.0934 0 0
4:56 pm 16:56 Mostly Cloudy 77 25 71 21.7 82 82 WSW 16 26 29.75 1008 10 16.0934 0 0
5:56 pm 17:56 Mostly Sunny 76 24.4 71 21.7 85 85 WSW 12 19 29.75 1007 10 16.0934 0 0
6:56 pm 18:56 Mostly Cloudy with Light Rain 74 23.3 72 22.2 94 94 SSW 7 11 29.72 1006 10 16.0934 0 0.0254
7:56 pm 19:56 Sunny 74 23.3 72 22.2 94 94 WSW 7 11 29.74 1007 10 16.0934 0 0.0254
8:56 pm 20:56 Sunny 72 22.2 72 22.2 100 100 W 5 7 29.74 1007 9 14.48406 0 0
9:56 pm 21:56 Clear 71 21.7 71 21.7 100 100 W 7 11 29.77 1008 9 14.48406 0 0
10:54 pm 22:54 Partly Cloudy 72 22 72 22 100 100 WSW 10 17 29.77 1008 9 14.48406 0.01 0.254
10:56 pm 22:56 Mostly Clear 71 21.7 71 21.7 100 100 WSW 10 17 29.8 1009 9 14.48406 0.01 0.254
11:56 pm 23:56 Mostly Cloudy 68 20 68 20 100 100 W 7 11 29.8 1009 10 16.0934 0 0

Powered by AerisWeather